Location: Granada
(37.1830°N, 3.6000°W)
Time: 09:09:05
(UTC+01:00)

Iridium 70 - Visible Passes

Search period start: 24 February 2017 00:00
Search period end: 06 March 2017 00:00
Orbit: 776 x 779 km, 86.4° (Epoch: 23 February)

Date Brightness Start Highest point End Pass type
(mag) Time Alt. Az. Time Alt. Az. Time Alt. Az.
24 Feb 7.1 19:22:44 10° NE 19:25:18 14° ENE 19:27:53 10° ESE visible
24 Feb 6.0 21:01:18 10° N 21:06:26 60° W 21:11:33 10° SSW visible
25 Feb 5.4 20:27:44 10° N 20:32:57 72° E 20:38:08 10° S visible
25 Feb 8.6 22:11:27 10° WNW 22:12:56 11° WNW 22:14:25 10° W visible
26 Feb 6.0 19:54:30 10° NNE 19:59:21 37° E 20:04:09 10° SSE visible
26 Feb 7.9 21:35:51 10° NNW 21:39:45 22° W 21:43:39 10° SW visible
27 Feb 6.8 21:01:36 10° NNW 21:06:28 40° W 21:11:17 10° SSW visible
28 Feb 5.6 20:27:49 10° N 20:33:02 78° W 20:38:14 10° S visible
01 Mar 5.6 19:54:22 10° N 19:59:30 55° E 20:04:36 10° SSE visible
01 Mar 8.5 21:36:51 10° NW 21:39:40 15° W 21:42:28 10° WSW visible
02 Mar 8.8 07:11:47 10° ESE 07:13:50 12° ENE 07:15:53 10° NE visible
02 Mar 7.6 21:02:04 10° NNW 21:06:26 28° W 21:10:48 10° SW visible
03 Mar 6.4 20:28:01 10° NNW 20:33:05 52° W 20:38:08 10° SSW visible
04 Mar 5.5 19:54:24 10° N 19:59:38 82° E 20:04:50 10° S visible
05 Mar 8.5 07:10:14 10° ESE 07:13:43 18° E 07:17:13 10° NE visible
05 Mar 8.3 21:02:47 10° NW 21:06:22 19° W 21:09:57 10° SW visible
